Weather in Ostashkovo

Russia / Omsk Oblast     54°57′45″N   73°33′19″E
temp.,
°C
wind,
m/s
gust,
m/s
humid.,
%
clouds,
%
prec.,
mm/h
press.,
hPa
HPBL,
m
10 may, mon
mon1000:00+13e81439100 0.0 1018886
03:00+11e71444100 0.0 1019869
06:00+9ene71446100 0.0 1020792
09:00+11e81239100 0.0 1021977
12:00+14e81130100 0.0 10211547
15:00+17ene89286 0.0 10211918
18:00+17ene78295 0.0 10221998
21:00+13ne48410 0.0 1023544
11 may, tue
tue1100:00+10nne36492 0.0 1023126
03:00+9ne35555 0.0 102497
06:00+8n36610 0.0 1024119
09:00+12ne58490 0.0 1025872
12:00+15nne68311 0.0 10251632
15:00+17nne67283 0.0 10251945
18:00+17nne57282 0.0 10251949
21:00+13ne23390 0.0 102584
12 may, wed
wed1200:00+11n11420 0.0 102510
03:00+10wnw2245100 0.0 102524
06:00+10w2248100 0.0 102536
09:00+15w343999 0.0 1024365
12:00+21wnw4630100 0.0 10231604
15:00+22nw683096 0.0 10212230
18:00+20nw5946100 0.0 10211121
21:00+16nnw4105497 0.1 1022650
13 may, thu
thu1300:00+12n41070100 0.1 1022379
03:00+11n4952100 0.0 1022314
06:00+10n3752100 0.0 1023270
09:00+12n594083 0.0 1024653
12:00+16n683118 0.0 10231953
15:00+18n68285 0.0 10222200
18:00+19n57316 0.0 10212112
21:00+15nw2454100 0.0 1022153
14 may, fri
fri1400:00+15wnw4962100 0.0 1021381
03:00+13nw51178100 0.1 1020369
06:00+11n5108632 0.1 1023523
09:00+13n67635 0.0 1024850
12:00+17n563752 0.0 10251218
15:00+19nnw562825 0.0 10251628
18:00+20nnw462940 0.0 10241467
21:00+17sw23435 0.0 102449